[[{"header":{"parameterUnit":"m.s-1","parameterCategory":2,"la1":30.2991,"la2":30.254,"lo1":-89.0895,"lo2":-89.0444,"dy":0.0017,"dx":0.0017,"nx":28,"ny":28,"refTime":"2025-09-16T03:00:00:Z","depth":"0","parameterNumber":2,"parameterNumberName":"U-component_of_CURRENTS"},"data":[0,0,0,0,0,0,0,0,0,0,0,0,0,0,0,0,0,0,0,0,0,0,0,0,0,0,0,0,0,0,0,0,0,0,0,0,0,0,0,0,0,0,0,0,0,0,0,0,0,0,0,0,0,0,0,0,0,0,0.216,0.216,0,0.2197,0.2197,0.2197,0.2237,0.2238,0.2239,0.2239,0.2257,0.2257,0.2257,0,0,0,0,0,0,0,0,0,0,0,0,0,0.2176,0.2175,0.216,0.2161,0.2161,0.2197,0.2197,0.2197,0.2237,0.2238,0.2239,0.224,0.2258,0.2257,0.2257,0,0,0,0,0,0,0,0,0,0,0,0,0,0.2184,0.2175,0.216,0.2187,0.219,0.2197,0.2197,0.2197,0.2237,0.2238,0.2239,0.224,0.2258,0.2257,0.2257,0.2231,0,0,0.2256,0.2256,0,0,0,0,0,0,0,0,0.2184,0.2183,0.2182,0.2185,0.2189,0.2216,0.221,0.2209,0.2236,0.2217,0.2239,0.2241,0.2242,0.2243,0.2245,0.2232,0.2233,0.2256,0.2256,0.2255,0.2255,0,0,0,0,0,0,0,0.2183,0.2182,0.2172,0.2183,0.2187,0.2216,0.2217,0.221,0.222,0.2218,0.2222,0.2229,0.2244,0.2245,0.2245,0.2233,0.2256,0.2255,0.2255,0.2255,0.2224,0.2223,0,0,0,0,0,0,0.2179,0.2181,0.2171,0.2174,0.2192,0.2214,0.2216,0.2204,0.2221,0.2225,0.2228,0.2231,0.2245,0.2246,0.2246,0.2251,0.2255,0.2255,0.2255,0.2224,0.2224,0.2223,0,0,0,0,0,0,0.2178,0.2176,0.217,0.2182,0.2183,0.2212,0.2199,0.2204,0.2211,0.2229,0.2233,0.2231,0.2246,0.2247,0.2248,0.2251,0.2255,0.2255,0.2225,0.2224,0.2223,0.2239,0,0,0,0,0,0,0.2178,0.2176,0.2165,0.218,0.2182,0.2182,0.2198,0.2204,0.2214,0.2218,0.2232,0.2235,0.2247,0.2248,0.2247,0.225,0.2254,0.2226,0.2225,0.2223,0.2239,0.2238,0.2238,0,0,0,0,0,0.2178,0.2157,0.2164,0.2163,0.2166,0.2183,0.2186,0.2211,0.2213,0.2219,0.2227,0.2235,0.224,0.2248,0.2247,0.225,0.2226,0.2225,0.2224,0.2239,0.2239,0.2238,0,0,0,0,0,0,0.214,0.216,0.2168,0.2147,0.217,0.2191,0.2193,0.2206,0.2214,0.2214,0.2228,0.2231,0.2236,0.223,0.2238,0.2234,0.2234,0.2232,0.2246,0.2245,0.2245,0.2257,0.2254,0,0,0,0,0,0.213,0.2129,0.2151,0.2135,0.2144,0.2166,0.2174,0.2191,0.2203,0.2208,0.2217,0.222,0.2226,0.2227,0.2231,0.2222,0.2233,0.2221,0.2221,0.222,0.2228,0.2277,0.2283,0.2218,0.2218,0.2218,0,0,0.2107,0.212,0.2116,0.213,0.2144,0.2161,0.2173,0.2184,0.2199,0.2205,0.2216,0.222,0.2223,0.2227,0.2227,0.2225,0.2233,0.2219,0.2219,0.2226,0.2276,0.2283,0.2289,0.2217,0.2218,0.2218,0,0,0.2084,0.2075,0.2082,0.2102,0.2132,0.2148,0.2151,0.2174,0.2186,0.2197,0.2206,0.2214,0.2215,0.2226,0.223,0.2221,0.2232,0.2212,0.2219,0.2267,0.2274,0.228,0.2259,0.2264,0.2209,0.2209,0.2209,0,0.2056,0.2069,0.2086,0.2105,0.2119,0.2142,0.2155,0.2169,0.219,0.2191,0.2204,0.2215,0.2221,0.2229,0.2233,0.2224,0.2232,0.2226,0.227,0.2277,0.2283,0.2261,0.2266,0.221,0.221,0.2209,0.2209,0,0.2057,0.2067,0.2068,0.2104,0.2118,0.2129,0.2157,0.2163,0.2177,0.2192,0.2206,0.2223,0.223,0.2232,0.2235,0.2265,0.2246,0.2271,0.228,0.2291,0.2265,0.227,0.221,0.221,0.221,0.221,0,0,0.1984,0.2058,0.2057,0.2082,0.2119,0.2129,0.2143,0.2162,0.2163,0.2194,0.2206,0.2227,0.2235,0.2238,0.2243,0.2285,0.2322,0.2296,0.2298,0.2288,0.2384,0.2111,0.2089,0.2368,0.237,0.2371,0.2333,0,0.1979,0.2032,0.2059,0.2086,0.2112,0.2129,0.2138,0.2154,0.2168,0.2183,0.2212,0.2223,0.2237,0.224,0.2288,0.2321,0.2342,0.2327,0.2363,0.2363,0.2132,0.2089,0.1935,0.1867,0.2338,0.2339,0.2339,0,0.1967,0.2012,0.2053,0.2094,0.21,0.2109,0.2117,0.213,0.2149,0.216,0.2185,0.2204,0.2246,0.2273,0.2341,0.2333,0.2356,0.2385,0.2385,0.2133,0.2099,0.1939,0.1858,0.1784,0.2347,0.2346,0.2346,0,0.1936,0.1991,0.203,0.2046,0.2098,0.2095,0.2106,0.2116,0.2115,0.2144,0.2146,0.2202,0.2223,0.2295,0.2309,0.235,0.2371,0.2437,0.2204,0.2184,0.2057,0.2019,0.192,0.2492,0.2492,0.2492,0.2492,0,0.1923,0.1943,0.2017,0.2039,0.205,0.2079,0.2072,0.2083,0.2094,0.2087,0.2131,0.2133,0.2242,0.2249,0.2298,0.2206,0.2354,0.2178,0.2154,0.2044,0.2008,0.1939,0.1941,0.2491,0.2491,0.2491,0.2492,0,0.1888,0.194,0.1982,0.2038,0.2043,0.2048,0.2052,0.2047,0.2053,0.2049,0.2057,0.2092,0.2072,0.2101,0.2179,0.2133,0.2012,0.2052,0.1854,0.1804,0.148,0.1486,0.1331,0.1315,0.1801,0.1794,0.1788,0,0.1882,0.1911,0.1977,0.199,0.2013,0.2021,0.2019,0.2028,0.2018,0.2009,0.2005,0.197,0.1925,0.1848,0.1757,0.1688,0.1744,0.1488,0.1528,0.1388,0.1387,0.1415,0.1422,0.1378,0.1369,0.1362,0.1356,0,0.1879,0.1906,0.1954,0.1982,0.1989,0.1983,0.1978,0.1962,0.1959,0.1928,0.1874,0.1833,0.168,0.1493,0.1316,0.1285,0.1344,0.1327,0.1297,0.1097,0.102,0.1016,0.1443,0.1292,0.1299,0.1303,0.1307,0.1309,0.1876,0.1904,0.1965,0.1971,0.1973,0.1938,0.1892,0.1874,0.1822,0.1714,0.1736,0.1556,0.131,0.1019,0.0962,0.066,0.0848,0.0635,0.0672,0.0726,0.0637,0.0829,0.0567,0.0569,0.0571,0.0573,0.0575,0,0.1881,0.1916,0.1942,0.1943,0.1901,0.1907,0.1854,0.177,0.1664,0.154,0.1433,0.104,0.0762,0.0553,0.0177,0.0057,0.0174,0.0041,0.0146,0.0211,0.0473,0.0375,-0.0081,-0.0081,-0.0081,-0.0081,-0.0081,-0.008,0.1893,0.1927,0.1934,0.187,0.1839,0.1731,0.1671,0.1548,0.1422,0.1107,0.082,0.0678,0.0345,-0.009,-0.0357,-0.0347,-0.0255,-0.0361,-0.0222,0.003,0.0094,0.0155,0.0065,-0.0449,-0.0449,-0.0476,-0.0477,-0.0478]},{"header":{"parameterUnit":"m.s-1","parameterCategory":2,"la1":30.2991,"la2":30.254,"lo1":-89.0895,"lo2":-89.0444,"dy":0.0017,"dx":0.0017,"nx":28,"ny":28,"refTime":"2025-09-16T03:00:00:Z","depth":"0","parameterNumber":3,"parameterNumberName":"V-component_of_CURRENTS"},"data":[0,0,0,0,0,0,0,0,0,0,0,0,0,0,0,0,0,0,0,0,0,0,0,0,0,0,0,0,0,0,0,0,0,0,0,0,0,0,0,0,0,0,0,0,0,0,0,0,0,0,0,0,0,0,0,0,0,0,0.0253,0.0253,0,0.024,0.024,0.024,0.023,0.0229,0.0229,0.0229,0.024,0.024,0.0241,0,0,0,0,0,0,0,0,0,0,0,0,0,0.0271,0.0271,0.0253,0.0253,0.0252,0.024,0.024,0.024,0.023,0.0229,0.0229,0.0229,0.024,0.024,0.0241,0,0,0,0,0,0,0,0,0,0,0,0,0,0.0262,0.0271,0.0253,0.0245,0.0244,0.0241,0.024,0.024,0.023,0.0229,0.0229,0.0229,0.024,0.024,0.0241,0.025,0,0,0.0243,0.0243,0,0,0,0,0,0,0,0,0.0263,0.0261,0.0246,0.0246,0.0245,0.0236,0.0251,0.0245,0.023,0.0236,0.0229,0.0229,0.0241,0.0241,0.024,0.0251,0.0251,0.0243,0.0244,0.0244,0.0244,0,0,0,0,0,0,0,0.0263,0.0262,0.0248,0.0246,0.0245,0.0244,0.0242,0.025,0.0241,0.0235,0.0234,0.0232,0.024,0.0239,0.024,0.0251,0.0243,0.0244,0.0244,0.0244,0.0315,0.0316,0,0,0,0,0,0,0.0264,0.0262,0.0249,0.0248,0.0253,0.0244,0.0242,0.0239,0.024,0.024,0.0232,0.0232,0.0238,0.0239,0.024,0.0277,0.0244,0.0244,0.0245,0.0313,0.0315,0.0317,0,0,0,0,0,0,0.0264,0.0263,0.0249,0.0255,0.0253,0.0244,0.0241,0.0239,0.0238,0.0237,0.0237,0.0233,0.0238,0.024,0.0257,0.0276,0.0245,0.0245,0.0312,0.0314,0.0316,0.0333,0,0,0,0,0,0,0.0265,0.0263,0.0262,0.0255,0.0252,0.0254,0.0241,0.0239,0.0237,0.0236,0.0238,0.0239,0.0238,0.0257,0.0258,0.0276,0.0246,0.031,0.0313,0.0315,0.033,0.0335,0.034,0,0,0,0,0,0.0265,0.0266,0.0263,0.0261,0.0252,0.0255,0.0254,0.0247,0.0237,0.0244,0.0247,0.0239,0.0276,0.0258,0.026,0.0278,0.0309,0.0312,0.0315,0.0328,0.0334,0.034,0,0,0,0,0,0,0.0271,0.0264,0.0261,0.0258,0.026,0.0253,0.0254,0.0249,0.0255,0.0254,0.0251,0.0252,0.0277,0.028,0.026,0.031,0.0294,0.0297,0.0303,0.0309,0.0313,0.034,0.0246,0,0,0,0,0,0.0273,0.0272,0.0268,0.0267,0.0268,0.0261,0.0261,0.0258,0.026,0.0261,0.0265,0.0276,0.0293,0.0301,0.0315,0.0336,0.0371,0.0354,0.0359,0.0362,0.0387,0.0497,0.0514,0.0328,0.0328,0.0328,0,0,0.0275,0.0271,0.027,0.0269,0.0267,0.027,0.0261,0.0263,0.0269,0.0263,0.0276,0.029,0.0303,0.0331,0.0342,0.0333,0.042,0.0366,0.0369,0.0393,0.0502,0.052,0.0537,0.033,0.033,0.0329,0,0,0.0282,0.0275,0.028,0.0281,0.0282,0.0279,0.028,0.0281,0.0285,0.03,0.0304,0.034,0.0347,0.0377,0.0388,0.0431,0.0441,0.0423,0.0466,0.0571,0.0588,0.0603,0.0609,0.0626,0.0425,0.0425,0.0425,0,0.0284,0.0284,0.0283,0.0288,0.0285,0.0283,0.0286,0.0293,0.0302,0.0323,0.0309,0.0379,0.0379,0.0442,0.0449,0.0443,0.0473,0.0437,0.0578,0.0595,0.061,0.0614,0.0632,0.0427,0.0426,0.0426,0.0426,0,0.0299,0.0294,0.0296,0.0299,0.0301,0.0302,0.0309,0.0324,0.0326,0.0347,0.0412,0.0437,0.0487,0.0487,0.0473,0.0578,0.0549,0.0571,0.0564,0.063,0.0628,0.0646,0.0428,0.0428,0.0428,0.0427,0,0,0.0308,0.0305,0.0305,0.0304,0.0302,0.0307,0.0324,0.0352,0.0393,0.042,0.0495,0.0524,0.0561,0.058,0.0588,0.0669,0.0764,0.066,0.0665,0.0664,0.0936,0.0859,0.087,0.0819,0.0824,0.0827,0.0868,0,0.0315,0.0316,0.0317,0.0319,0.0316,0.0323,0.0346,0.0379,0.0417,0.0495,0.0555,0.0625,0.0589,0.063,0.0705,0.0774,0.0824,0.0748,0.0876,0.0878,0.0803,0.0895,0.0867,0.0899,0.0885,0.0888,0.089,0,0.033,0.0323,0.0321,0.0328,0.0332,0.034,0.039,0.0416,0.0519,0.0562,0.0655,0.0709,0.0818,0.0794,0.0939,0.0895,0.0911,0.095,0.0954,0.0902,0.0839,0.0845,0.0932,0.0977,0.0918,0.0916,0.0914,0,0.0332,0.0329,0.0323,0.0321,0.0333,0.0347,0.0365,0.0441,0.0498,0.0626,0.0708,0.0828,0.0918,0.0999,0.1035,0.1013,0.1193,0.1174,0.1106,0.1096,0.111,0.1094,0.1265,0.1284,0.1284,0.1284,0.1284,0,0.0334,0.0333,0.0323,0.032,0.0342,0.0351,0.0417,0.0458,0.0571,0.0678,0.0752,0.0871,0.099,0.1087,0.1097,0.1151,0.1237,0.1139,0.1137,0.1103,0.1088,0.1155,0.1171,0.1285,0.1285,0.1285,0.1285,0,0.0343,0.0333,0.0329,0.0332,0.0341,0.0359,0.0433,0.0507,0.0591,0.0743,0.0795,0.095,0.107,0.1127,0.1262,0.1229,0.1299,0.1261,0.1155,0.1141,0.1107,0.1122,0.1278,0.1311,0.1218,0.1217,0.1216,0,0.0348,0.0342,0.0338,0.0352,0.0353,0.0388,0.0441,0.0513,0.0603,0.0788,0.0879,0.1026,0.1133,0.1252,0.1246,0.1248,0.128,0.1193,0.1159,0.1131,0.115,0.1158,0.1176,0.1152,0.1151,0.115,0.1149,0,0.0358,0.0353,0.0352,0.0376,0.0411,0.0467,0.0538,0.0606,0.0725,0.0836,0.0996,0.109,0.1188,0.1216,0.1194,0.1185,0.1227,0.1166,0.123,0.1199,0.1139,0.1157,0.1022,0.1139,0.114,0.1141,0.1141,0.1142,0.0372,0.0376,0.0382,0.0411,0.0461,0.0547,0.0595,0.0687,0.0805,0.0951,0.1035,0.1119,0.1167,0.115,0.1156,0.1125,0.1154,0.1114,0.1151,0.1173,0.1185,0.0966,0.1026,0.1026,0.1026,0.1027,0.1027,0,0.0388,0.0403,0.0429,0.0471,0.0539,0.0561,0.0674,0.0719,0.0831,0.0928,0.102,0.1036,0.1089,0.1106,0.1086,0.111,0.1144,0.1146,0.1201,0.1235,0.1131,0.1107,0.1078,0.1078,0.1078,0.1078,0.1078,0.1078,0.0405,0.0427,0.0441,0.0537,0.0579,0.0657,0.0714,0.0764,0.0816,0.0863,0.0855,0.0872,0.0903,0.1094,0.1167,0.1183,0.1284,0.1254,0.133,0.1284,0.1285,0.1286,0.1272,0.1278,0.1278,0.1425,0.1426,0.1427]}],[{"header":{"parameterUnit":"m.s-1","parameterCategory":2,"la1":30.2991,"la2":30.254,"lo1":-89.0895,"lo2":-89.0444,"dy":0.0017,"dx":0.0017,"nx":28,"ny":28,"refTime":"2025-09-16T03:00:00:Z","depth":"2","parameterNumber":2,"parameterNumberName":"U-component_of_CURRENTS"},"data":[0,0,0,0,0,0,0,0,0,0,0,0,0,0,0,0,0,0,0,0,0,0,0,0,0,0,0,0,0,0,0,0,0,0,0,0,0,0,0,0,0,0,0,0,0,0,0,0,0,0,0,0,0,0,0,0,0,0,0.1249,0.1249,0,0.1264,0.1265,0.1265,0.1319,0.132,0.1322,0.1323,0.1391,0.1392,0.1393,0,0,0,0,0,0,0,0,0,0,0,0,0,0.1245,0.1245,0.1249,0.1249,0.1249,0.1264,0.1265,0.1265,0.1319,0.132,0.1322,0.1323,0.1391,0.1392,0.1393,0,0,0,0,0,0,0,0,0,0,0,0,0,0.1253,0.1245,0.1249,0.1278,0.128,0.1264,0.1265,0.1265,0.1319,0.132,0.1322,0.1324,0.1391,0.1392,0.1393,0.1365,0,0,0.1396,0.1397,0,0,0,0,0,0,0,0,0.1253,0.1253,0.1273,0.1276,0.1278,0.1291,0.1288,0.1301,0.1318,0.1305,0.1323,0.1325,0.1361,0.1365,0.1364,0.1368,0.1371,0.1396,0.1397,0.1398,0.1398,0,0,0,0,0,0,0,0.1252,0.1253,0.1256,0.1273,0.1276,0.1282,0.1286,0.1291,0.1325,0.1306,0.131,0.131,0.1363,0.1363,0.1366,0.1372,0.1396,0.1397,0.1398,0.1399,0.1499,0.1501,0,0,0,0,0,0,0.1248,0.1252,0.1255,0.1256,0.1269,0.1281,0.1285,0.1286,0.1323,0.133,0.1308,0.1312,0.136,0.1365,0.1369,0.1421,0.1398,0.1399,0.1399,0.1497,0.1499,0.1501,0,0,0,0,0,0,0.1247,0.1248,0.1255,0.1254,0.1255,0.1279,0.128,0.1285,0.1312,0.1324,0.1333,0.1333,0.1361,0.1367,0.1401,0.1422,0.1399,0.14,0.1494,0.1497,0.15,0.1473,0,0,0,0,0,0,0.1247,0.1248,0.126,0.1254,0.1255,0.1261,0.1278,0.1284,0.1307,0.1313,0.1348,0.1354,0.1363,0.1399,0.1402,0.1423,0.1401,0.1492,0.1496,0.1499,0.1472,0.1475,0.1478,0,0,0,0,0,0.1247,0.1245,0.126,0.1261,0.1267,0.1261,0.1263,0.1286,0.1307,0.1317,0.1348,0.1355,0.1427,0.1401,0.1404,0.1425,0.149,0.1495,0.1499,0.147,0.1474,0.1478,0,0,0,0,0,0,0.1249,0.125,0.1267,0.1267,0.1275,0.1271,0.1278,0.1295,0.1324,0.1339,0.136,0.1368,0.141,0.1427,0.1398,0.1473,0.1467,0.1473,0.1445,0.1449,0.1452,0.1439,0.1402,0,0,0,0,0,0.1254,0.1254,0.126,0.1262,0.1265,0.1278,0.1284,0.1299,0.1315,0.1331,0.1359,0.1397,0.1424,0.1444,0.1469,0.1494,0.1524,0.1521,0.1524,0.1526,0.1523,0.1619,0.163,0.1516,0.1516,0.1516,0,0,0.1254,0.1254,0.1257,0.1263,0.1268,0.1265,0.1286,0.1295,0.1302,0.1332,0.1365,0.1402,0.1435,0.1469,0.1491,0.1488,0.1569,0.1532,0.1533,0.1529,0.1625,0.1636,0.1645,0.1519,0.1518,0.1518,0,0,0.1241,0.1256,0.1254,0.1257,0.1268,0.1269,0.1277,0.1294,0.1317,0.1346,0.1377,0.1427,0.1469,0.1495,0.1512,0.1549,0.1581,0.1576,0.1576,0.1669,0.1679,0.1687,0.1705,0.1716,0.1579,0.1579,0.1579,0,0.1244,0.1239,0.1253,0.1249,0.1247,0.1271,0.1265,0.128,0.1313,0.1339,0.1363,0.1455,0.1478,0.1518,0.1536,0.1552,0.1596,0.1548,0.167,0.168,0.169,0.1706,0.1718,0.1578,0.1578,0.1578,0.1578,0,0.1227,0.1229,0.1223,0.1225,0.1228,0.1223,0.124,0.1267,0.1304,0.1333,0.1404,0.1448,0.1511,0.1531,0.1538,0.1619,0.1622,0.1658,0.165,0.1699,0.1713,0.1726,0.1577,0.1577,0.1578,0.1578,0,0,0.1212,0.1211,0.1215,0.1212,0.1214,0.1213,0.1225,0.1248,0.1281,0.134,0.1398,0.1448,0.1505,0.153,0.1565,0.1636,0.172,0.1677,0.1682,0.1673,0.1889,0.1612,0.1599,0.1796,0.1799,0.1801,0.1858,0,0.1196,0.1182,0.1188,0.1176,0.1162,0.1186,0.1198,0.1232,0.1279,0.1347,0.1415,0.1488,0.1494,0.155,0.1616,0.1718,0.1761,0.1698,0.1862,0.1865,0.1597,0.1607,0.1474,0.149,0.187,0.1873,0.1874,0,0.1174,0.1167,0.1156,0.1151,0.1153,0.1161,0.1197,0.1214,0.1298,0.135,0.1432,0.1502,0.1601,0.162,0.1777,0.175,0.1807,0.1867,0.1873,0.1631,0.1611,0.1515,0.1499,0.1896,0.1895,0.1893,0.1891,0,0.1151,0.1139,0.1132,0.1129,0.1137,0.1157,0.1172,0.1231,0.1268,0.1376,0.1441,0.1552,0.1644,0.1755,0.1828,0.1851,0.1984,0.2039,0.1821,0.1802,0.1722,0.1686,0.2136,0.2136,0.2136,0.2136,0.2136,0,0.1121,0.1121,0.113,0.1131,0.1147,0.1153,0.1197,0.1235,0.131,0.137,0.1458,0.1524,0.1699,0.1777,0.1848,0.1825,0.1998,0.1798,0.1799,0.1699,0.1663,0.2056,0.2046,0.2138,0.2138,0.2137,0.2137,0,0.1124,0.1117,0.1115,0.1129,0.114,0.1165,0.1215,0.1251,0.1315,0.1403,0.145,0.1557,0.1626,0.1701,0.1862,0.1815,0.1851,0.1792,0.1594,0.1565,0.161,0.1599,0.1598,0.1589,0.1581,0.1575,0.1569,0,0.1134,0.1126,0.1136,0.1147,0.1169,0.1201,0.1228,0.127,0.1305,0.1404,0.1448,0.1517,0.1522,0.155,0.1499,0.1482,0.1635,0.132,0.1307,0.1554,0.1558,0.1559,0.1558,0.1217,0.1209,0.1203,0.1197,0,0.1154,0.1159,0.1161,0.1185,0.121,0.1232,0.1268,0.1286,0.1339,0.1377,0.1406,0.141,0.1347,0.122,0.1103,0.1096,0.1305,0.1173,0.1572,0.1306,0.1181,0.1187,0.1204,0.1139,0.1145,0.1149,0.1153,0.1155,0.1179,0.1187,0.1186,0.1217,0.1243,0.1263,0.1251,0.1266,0.1278,0.1254,0.1281,0.1171,0.1126,0.0827,0.0766,0.0697,0.0826,0.0831,0.0861,0.0896,0.0773,0.0633,0.0466,0.0467,0.0469,0.047,0.0472,0,0.1181,0.1195,0.1218,0.123,0.1248,0.1281,0.1272,0.1202,0.1164,0.1092,0.1017,0.0784,0.0608,0.0572,0.0358,0.0285,0.0395,0.0277,0.047,0.0522,0.0571,0.0443,0.0044,0.0043,0.0042,0.0041,0,0,0.1174,0.1179,0.1189,0.122,0.1252,0.1234,0.1211,0.1092,0.0977,0.0794,0.0655,0.0548,0.0528,0.0291,0.0225,0.0115,0.0338,0.0083,0.0421,0.0703,0.0752,0.0866,0.0719,0,0,0,0,0]},{"header":{"parameterUnit":"m.s-1","parameterCategory":2,"la1":30.2991,"la2":30.254,"lo1":-89.0895,"lo2":-89.0444,"dy":0.0017,"dx":0.0017,"nx":28,"ny":28,"refTime":"2025-09-16T03:00:00:Z","depth":"2","parameterNumber":3,"parameterNumberName":"V-component_of_CURRENTS"},"data":[0,0,0,0,0,0,0,0,0,0,0,0,0,0,0,0,0,0,0,0,0,0,0,0,0,0,0,0,0,0,0,0,0,0,0,0,0,0,0,0,0,0,0,0,0,0,0,0,0,0,0,0,0,0,0,0,0,0,-0.0171,-0.0171,0,-0.0186,-0.0186,-0.0186,-0.02,-0.02,-0.02,-0.0201,-0.0205,-0.0205,-0.0204,0,0,0,0,0,0,0,0,0,0,0,0,0,-0.0139,-0.0139,-0.0171,-0.0171,-0.0171,-0.0186,-0.0186,-0.0186,-0.02,-0.02,-0.02,-0.0201,-0.0205,-0.0205,-0.0204,0,0,0,0,0,0,0,0,0,0,0,0,0,-0.0153,-0.0139,-0.0171,-0.018,-0.0181,-0.0186,-0.0186,-0.0186,-0.02,-0.02,-0.0201,-0.0201,-0.0205,-0.0205,-0.0204,-0.0197,0,0,-0.0204,-0.0204,0,0,0,0,0,0,0,0,-0.0152,-0.0154,-0.0178,-0.0179,-0.0181,-0.0192,-0.0176,-0.019,-0.02,-0.0192,-0.0201,-0.0201,-0.0199,-0.02,-0.0201,-0.0197,-0.0198,-0.0204,-0.0204,-0.0204,-0.0204,0,0,0,0,0,0,0,-0.0151,-0.0153,-0.0176,-0.0179,-0.018,-0.0179,-0.0181,-0.0179,-0.0193,-0.0193,-0.0194,-0.0197,-0.02,-0.0201,-0.0201,-0.0198,-0.0204,-0.0204,-0.0204,-0.0204,-0.018,-0.0179,0,0,0,0,0,0,-0.0151,-0.0152,-0.0176,-0.0177,-0.0167,-0.0179,-0.0182,-0.0187,-0.0194,-0.0195,-0.0196,-0.0197,-0.0201,-0.0202,-0.0202,-0.0199,-0.0204,-0.0204,-0.0204,-0.018,-0.018,-0.0179,0,0,0,0,0,0,-0.015,-0.0153,-0.0175,-0.0165,-0.0168,-0.018,-0.0186,-0.0188,-0.0199,-0.0196,-0.0198,-0.0207,-0.0202,-0.0202,-0.0205,-0.0199,-0.0204,-0.0204,-0.0181,-0.018,-0.0179,-0.0189,0,0,0,0,0,0,-0.0149,-0.0152,-0.0159,-0.0165,-0.0168,-0.0179,-0.0186,-0.0188,-0.02,-0.0201,-0.0205,-0.0206,-0.0202,-0.0206,-0.0205,-0.0199,-0.0203,-0.0182,-0.0181,-0.018,-0.019,-0.0189,-0.0188,0,0,0,0,0,-0.0148,-0.0153,-0.0159,-0.0162,-0.0177,-0.0179,-0.018,-0.0189,-0.02,-0.0201,-0.0207,-0.0206,-0.0198,-0.0206,-0.0205,-0.0198,-0.0182,-0.0181,-0.018,-0.019,-0.0189,-0.0188,0,0,0,0,0,0,-0.0138,-0.0155,-0.0162,-0.0172,-0.0176,-0.0181,-0.0185,-0.0194,-0.0201,-0.0205,-0.0207,-0.0207,-0.0205,-0.0199,-0.0208,-0.0186,-0.0187,-0.0185,-0.0194,-0.0193,-0.0193,-0.0176,-0.0203,0,0,0,0,0,-0.0141,-0.0152,-0.0161,-0.0168,-0.0172,-0.0181,-0.0186,-0.0191,-0.0197,-0.0201,-0.0205,-0.0203,-0.0197,-0.0196,-0.019,-0.0184,-0.014,-0.0175,-0.0174,-0.0174,-0.0159,-0.007,-0.0059,-0.0175,-0.0175,-0.0175,0,0,-0.0139,-0.0149,-0.0156,-0.0168,-0.0173,-0.0173,-0.0185,-0.0191,-0.019,-0.0199,-0.0203,-0.0204,-0.0196,-0.0187,-0.0185,-0.0184,-0.0123,-0.0172,-0.0172,-0.0157,-0.0067,-0.0056,-0.0046,-0.0174,-0.0174,-0.0175,0,0,-0.0136,-0.015,-0.0158,-0.0161,-0.017,-0.0172,-0.0176,-0.0185,-0.0189,-0.0192,-0.0196,-0.0192,-0.0191,-0.0178,-0.0172,-0.0161,-0.0123,-0.0163,-0.0146,-0.0061,-0.005,-0.004,0.0009,0.0024,-0.0161,-0.0161,-0.0161,0,-0.0136,-0.0146,-0.0158,-0.0161,-0.0164,-0.0173,-0.0173,-0.0173,-0.0182,-0.0178,-0.0191,-0.0174,-0.0179,-0.0152,-0.0155,-0.0158,-0.0112,-0.0155,-0.0058,-0.0047,-0.0036,0.0012,0.0028,-0.0161,-0.0161,-0.0161,-0.0161,0,-0.0135,-0.0144,-0.0146,-0.0155,-0.0155,-0.0158,-0.0158,-0.0158,-0.0166,-0.0162,-0.0147,-0.0148,-0.0133,-0.0137,-0.0149,-0.0085,-0.0078,-0.0069,-0.0059,-0.0025,0.0023,0.004,-0.0161,-0.0161,-0.0161,-0.0161,0,0,-0.0134,-0.0146,-0.0147,-0.0151,-0.0155,-0.0154,-0.0145,-0.0136,-0.0122,-0.0124,-0.0093,-0.01,-0.0099,-0.0091,-0.0097,-0.0036,0.0054,-0.0025,-0.002,0.0025,0.023,0.0186,0.02,0.0089,0.0093,0.0095,0.0226,0,-0.0133,-0.0143,-0.0144,-0.0144,-0.0149,-0.0145,-0.0133,-0.0122,-0.011,-0.0078,-0.0063,-0.0039,-0.008,-0.007,-0.0018,0.0052,0.0103,0.0016,0.019,0.0195,0.0154,0.0221,0.018,0.029,0.0243,0.0246,0.0248,0,-0.0133,-0.0141,-0.015,-0.0144,-0.0144,-0.0144,-0.0121,-0.0111,-0.0065,-0.005,-0.0018,0.0006,0.0072,0.0043,0.018,0.0132,0.0174,0.0222,0.0229,0.0209,0.0184,0.0254,0.0324,0.0277,0.0275,0.0273,0.0271,0,-0.0137,-0.014,-0.0151,-0.0152,-0.0148,-0.0148,-0.0143,-0.0111,-0.0083,-0.0024,0.0029,0.009,0.0159,0.0229,0.0297,0.0261,0.0468,0.0434,0.0427,0.0423,0.0434,0.0425,0.0538,0.0538,0.0537,0.0537,0.0537,0,-0.0142,-0.0145,-0.016,-0.0169,-0.0167,-0.0162,-0.0143,-0.0126,-0.0066,0.0007,0.0038,0.0135,0.0222,0.0336,0.0359,0.0456,0.052,0.0453,0.0471,0.0424,0.0413,0.0437,0.0423,0.0542,0.0541,0.054,0.0539,0,-0.0153,-0.016,-0.0171,-0.0178,-0.0177,-0.0183,-0.0151,-0.0117,-0.0066,0.0043,0.0077,0.022,0.0373,0.0436,0.0587,0.0557,0.0634,0.064,0.0554,0.0558,0.0509,0.0493,0.0658,0.0658,0.0658,0.0658,0.0658,0,-0.016,-0.0174,-0.0189,-0.0188,-0.0197,-0.0196,-0.0175,-0.0134,-0.0075,0.0108,0.0185,0.0361,0.0496,0.0665,0.0663,0.0703,0.0694,0.0658,0.0566,0.0529,0.053,0.0515,0.05,0.0575,0.0574,0.0574,0.0573,0,-0.0176,-0.0189,-0.02,-0.0201,-0.0193,-0.0161,-0.0123,-0.0069,0.0034,0.0158,0.0372,0.0499,0.0638,0.0694,0.0702,0.0701,0.0641,0.0644,0.0703,0.0526,0.0456,0.0454,0.0442,0.0568,0.0569,0.0569,0.0569,0.0569,-0.0187,-0.0194,-0.0205,-0.02,-0.0177,-0.0106,-0.0046,0.0037,0.017,0.0364,0.047,0.062,0.0658,0.066,0.067,0.0625,0.063,0.0581,0.0582,0.0584,0.0526,0.0458,0.0558,0.0559,0.0559,0.0559,0.056,0,-0.0183,-0.0189,-0.0189,-0.0158,-0.0105,-0.0093,0.002,0.0102,0.0287,0.0396,0.0557,0.0568,0.0621,0.0633,0.0554,0.053,0.0516,0.0516,0.0501,0.0506,0.0511,0.0448,0.0461,0.046,0.046,0.046,0,0,-0.0178,-0.0177,-0.0169,-0.0086,-0.0048,0.007,0.0158,0.0256,0.0335,0.0452,0.0497,0.0582,0.0601,0.0524,0.0519,0.0482,0.0489,0.0466,0.0543,0.053,0.0534,0.0543,0.0451,0,0,0,0,0]}],[{"header":{"parameterUnit":"m.s-1","parameterCategory":2,"la1":30.2991,"la2":30.254,"lo1":-89.0895,"lo2":-89.0444,"dy":0.0017,"dx":0.0017,"nx":28,"ny":28,"refTime":"2025-09-16T03:00:00:Z","depth":"4","parameterNumber":2,"parameterNumberName":"U-component_of_CURRENTS"},"data":[0,0,0,0,0,0,0,0,0,0,0,0,0,0,0,0,0,0,0,0,0,0,0,0,0,0,0,0,0,0,0,0,0,0,0,0,0,0,0,0,0,0,0,0,0,0,0,0,0,0,0,0,0,0,0,0,0,0,-0.0109,-0.0109,0,-0.016,-0.0161,-0.0161,-0.0174,-0.0174,-0.0173,-0.0173,-0.0172,-0.0172,-0.0173,0,0,0,0,0,0,0,0,0,0,0,0,0,-0.0019,-0.002,-0.0109,-0.0109,-0.011,-0.016,-0.0161,-0.0162,-0.0174,-0.0174,-0.0173,-0.0173,-0.0172,-0.0172,-0.0173,0,0,0,0,0,0,0,0,0,0,0,0,0,-0.0063,-0.0021,-0.0109,-0.0122,-0.0124,-0.016,-0.0161,-0.0162,-0.0174,-0.0174,-0.0173,-0.0172,-0.0172,-0.0172,-0.0173,-0.0187,0,0,-0.0174,-0.0175,0,0,0,0,0,0,0,0,-0.006,-0.0066,-0.0119,-0.0121,-0.0123,-0.016,-0.0129,-0.0167,-0.0174,-0.0155,-0.0173,-0.0172,-0.0163,-0.0165,-0.0177,-0.0187,-0.0187,-0.0174,-0.0175,-0.0175,-0.0175,0,0,0,0,0,0,0,-0.0057,-0.0064,-0.0129,-0.012,-0.0122,-0.0125,-0.013,-0.0136,-0.0161,-0.0157,-0.0158,-0.0163,-0.0164,-0.0176,-0.0177,-0.0187,-0.0174,-0.0175,-0.0175,-0.0175,-0.0107,-0.0105,0,0,0,0,0,0,-0.0052,-0.0062,-0.0128,-0.0131,-0.0089,-0.0127,-0.0133,-0.0149,-0.0162,-0.0164,-0.0164,-0.0164,-0.0176,-0.0176,-0.0176,-0.013,-0.0175,-0.0175,-0.0176,-0.0109,-0.0106,-0.0104,0,0,0,0,0,0,-0.005,-0.0057,-0.0126,-0.0096,-0.0105,-0.0129,-0.0146,-0.015,-0.014,-0.0168,-0.0169,-0.0147,-0.0175,-0.0176,-0.0151,-0.0132,-0.0176,-0.0176,-0.0112,-0.0108,-0.0105,-0.0078,0,0,0,0,0,0,-0.0047,-0.0057,-0.006,-0.0096,-0.0107,-0.0139,-0.0147,-0.0152,-0.0146,-0.0145,-0.0154,-0.0155,-0.0175,-0.015,-0.0151,-0.0134,-0.0176,-0.0114,-0.011,-0.0106,-0.0081,-0.0074,-0.0068,0,0,0,0,0,-0.0044,-0.0056,-0.006,-0.0067,-0.0112,-0.0139,-0.0144,-0.0159,-0.0145,-0.0145,-0.0132,-0.0154,-0.0125,-0.0149,-0.0151,-0.0133,-0.0116,-0.0111,-0.0107,-0.0084,-0.0075,-0.0068,0,0,0,0,0,0,-0.0014,-0.0059,-0.0064,-0.0087,-0.0105,-0.014,-0.0141,-0.0142,-0.0135,-0.0124,-0.0136,-0.0136,-0.0108,-0.0113,-0.0138,-0.0096,-0.0121,-0.0116,-0.0103,-0.0095,-0.0088,-0.0088,-0.0177,0,0,0,0,0,-0.0009,-0.0031,-0.0065,-0.0078,-0.0086,-0.0104,-0.0111,-0.0121,-0.0124,-0.012,-0.0121,-0.0108,-0.0095,-0.0087,-0.0086,-0.0066,-0.0064,-0.0049,-0.0042,-0.0037,-0.0033,0.0022,0.0034,-0.0089,-0.0089,-0.0089,0,0,-0.0002,-0.0026,-0.0038,-0.0073,-0.0085,-0.0105,-0.0106,-0.0115,-0.0118,-0.012,-0.0106,-0.0089,-0.0082,-0.0062,-0.0049,-0.0062,-0.0007,-0.0031,-0.0027,-0.0026,0.0028,0.004,0.005,-0.0085,-0.0086,-0.0087,0,0,-0.0005,-0.0015,-0.0038,-0.0053,-0.0073,-0.0088,-0.0082,-0.0101,-0.0093,-0.0079,-0.0071,-0.0033,-0.0027,-0.0015,-0.0007,0.0044,0.0027,0.0052,0.0082,0.0136,0.0146,0.0155,0.0138,0.0146,0.0056,0.0056,0.0056,0,0.0012,-0.0035,-0.0044,-0.0066,-0.0081,-0.0075,-0.0099,-0.009,-0.0093,-0.0071,-0.0067,-0.0012,-0.0006,0.0033,0.0055,0.0056,0.0067,0.0042,0.0143,0.0152,0.0161,0.0142,0.015,0.0058,0.0058,0.0058,0.0058,0,-0.0024,-0.0049,-0.0057,-0.0091,-0.0097,-0.0115,-0.0113,-0.0093,-0.007,-0.0056,0.0,0.0021,0.0064,0.0073,0.0077,0.0147,0.0125,0.0141,0.0115,0.0174,0.0151,0.0158,0.0061,0.006,0.006,0.0059,0,0,-0.0014,-0.0077,-0.0077,-0.0096,-0.0117,-0.0125,-0.0107,-0.0095,-0.0052,-0.0028,0.0025,0.0065,0.011,0.0125,0.0147,0.0189,0.0249,0.0199,0.0201,0.0167,0.0329,0.0276,0.0278,0.0295,0.0297,0.0299,0.0274,0,-0.004,-0.0105,-0.0122,-0.0151,-0.0181,-0.016,-0.0136,-0.0104,-0.0059,0.0003,0.0056,0.0115,0.0121,0.0164,0.0213,0.0246,0.0278,0.0252,0.029,0.0289,0.0225,0.029,0.0307,0.0279,0.0281,0.0282,0.0283,0,-0.0074,-0.0115,-0.0177,-0.0185,-0.0187,-0.0183,-0.013,-0.01,-0.0004,0.004,0.0117,0.0162,0.0231,0.0242,0.0315,0.0303,0.0328,0.0339,0.0339,0.0289,0.0253,0.0219,0.0296,0.0295,0.0294,0.0293,0.0292,0,-0.0093,-0.014,-0.0196,-0.0208,-0.0218,-0.0196,-0.0158,-0.0076,-0.0022,0.0089,0.0137,0.0219,0.0276,0.0326,0.036,0.0355,0.0426,0.0418,0.0376,0.0369,0.0405,0.0397,0.0483,0.0483,0.0483,0.0483,0.0483,0,-0.0133,-0.0161,-0.0198,-0.0227,-0.0214,-0.019,-0.012,-0.0069,0.0035,0.0106,0.018,0.0228,0.0315,0.036,0.0378,0.0393,0.0445,0.0386,0.038,0.0412,0.0405,0.0407,0.0399,0.0482,0.0483,0.0483,0.0483,0,-0.0158,-0.0198,-0.0243,-0.0252,-0.0235,-0.0206,-0.0101,-0.0041,0.0054,0.0147,0.0182,0.0261,0.0304,0.0348,0.0415,0.041,0.0428,0.0423,0.0416,0.0407,0.0314,0.0308,0.0355,0.0354,0.0352,0.0351,0.035,0,-0.0189,-0.0231,-0.0259,-0.0248,-0.0247,-0.0183,-0.0131,-0.0034,0.0021,0.0147,0.0167,0.0246,0.029,0.0328,0.0369,0.0382,0.039,0.0385,0.0386,0.0323,0.0312,0.0307,0.0303,0.0348,0.0348,0.0347,0.0347,0,-0.0242,-0.0257,-0.0287,-0.0269,-0.0233,-0.0191,-0.0115,-0.0082,0.0031,0.0104,0.0176,0.0226,0.0265,0.0297,0.0328,0.0335,0.0383,0.0371,0.0374,0.0374,0.0315,0.0304,0.0301,0.0342,0.0343,0.0344,0.0344,0,-0.0262,-0.0276,-0.0304,-0.0269,-0.0236,-0.0207,-0.0163,-0.0095,-0.0027,0.0099,0.0112,0.0193,0.026,0.027,0.0286,0.0303,0.0289,0.0288,0.0295,0.03,0.0297,0.0214,0.0217,0,0,0,0,0,-0.0277,-0.0288,-0.0282,-0.0254,-0.0224,-0.0195,-0.0161,-0.012,-0.0035,0.0012,0.0079,0.0118,0.0177,0.0197,0.02,0.0215,0.0261,0.0214,0.0255,0.0317,0.0322,0.0325,0,0,0,0,0,0,-0.0284,-0.0306,-0.0296,-0.0251,-0.0209,-0.0176,-0.0159,-0.0113,-0.0085,0.0006,0.0028,0.0116,0.0151,0.0196,0.021,0.0215,0.0235,0.0262,0.0261,0.0313,0.0318,0.0323,0.0328,0,0,0,0,0]},{"header":{"parameterUnit":"m.s-1","parameterCategory":2,"la1":30.2991,"la2":30.254,"lo1":-89.0895,"lo2":-89.0444,"dy":0.0017,"dx":0.0017,"nx":28,"ny":28,"refTime":"2025-09-16T03:00:00:Z","depth":"4","parameterNumber":3,"parameterNumberName":"V-component_of_CURRENTS"},"data":[0,0,0,0,0,0,0,0,0,0,0,0,0,0,0,0,0,0,0,0,0,0,0,0,0,0,0,0,0,0,0,0,0,0,0,0,0,0,0,0,0,0,0,0,0,0,0,0,0,0,0,0,0,0,0,0,0,0,0.024,0.0241,0,0.0297,0.0298,0.0299,0.0341,0.0341,0.0341,0.0341,0.0393,0.0394,0.0395,0,0,0,0,0,0,0,0,0,0,0,0,0,0.0184,0.0185,0.024,0.0241,0.0241,0.0297,0.0298,0.0299,0.0341,0.0341,0.0341,0.0341,0.0393,0.0394,0.0395,0,0,0,0,0,0,0,0,0,0,0,0,0,0.0223,0.0185,0.024,0.0267,0.027,0.0297,0.0298,0.0299,0.0341,0.0341,0.0341,0.0341,0.0392,0.0394,0.0396,0.0402,0,0,0.0401,0.0402,0,0,0,0,0,0,0,0,0.0221,0.0226,0.0263,0.0265,0.0269,0.031,0.0297,0.0332,0.0341,0.0316,0.0341,0.0341,0.0363,0.0367,0.0381,0.0404,0.0406,0.0401,0.0402,0.0403,0.0404,0,0,0,0,0,0,0,0.0218,0.0224,0.0265,0.0263,0.0267,0.0282,0.0288,0.0304,0.0339,0.0318,0.0321,0.0324,0.0365,0.0379,0.0382,0.0407,0.0401,0.0403,0.0404,0.0405,0.042,0.042,0,0,0,0,0,0,0.0206,0.0221,0.0263,0.0266,0.0243,0.0282,0.0289,0.0298,0.0339,0.0345,0.0323,0.0325,0.0376,0.038,0.0384,0.0397,0.0403,0.0405,0.0406,0.0421,0.042,0.042,0,0,0,0,0,0,0.0205,0.021,0.0261,0.0243,0.025,0.0283,0.0293,0.0299,0.0315,0.0343,0.0349,0.0332,0.0376,0.0381,0.0391,0.0399,0.0406,0.0407,0.0422,0.0421,0.042,0.042,0,0,0,0,0,0,0.0203,0.0209,0.0213,0.0242,0.0251,0.0275,0.0293,0.03,0.0315,0.0318,0.0352,0.0357,0.0377,0.0388,0.0393,0.0401,0.0409,0.0423,0.0421,0.042,0.0421,0.0419,0.0417,0,0,0,0,0,0.0201,0.0208,0.0213,0.0218,0.0255,0.0274,0.028,0.0306,0.0315,0.0321,0.0337,0.0356,0.0383,0.0389,0.0395,0.0404,0.0423,0.0422,0.042,0.0421,0.0419,0.0417,0,0,0,0,0,0,0.0188,0.0214,0.022,0.0235,0.025,0.0281,0.0291,0.0303,0.0322,0.0325,0.0351,0.0357,0.0367,0.0378,0.0383,0.0401,0.0405,0.0405,0.0404,0.0402,0.0401,0.0407,0.041,0,0,0,0,0,0.0184,0.0197,0.0218,0.0229,0.0236,0.0261,0.0273,0.0287,0.0306,0.0316,0.0337,0.0353,0.0365,0.0377,0.0388,0.0401,0.0387,0.0407,0.0405,0.0404,0.041,0.0369,0.0364,0.0415,0.0415,0.0415,0,0,0.0181,0.0197,0.0204,0.0227,0.0243,0.0262,0.027,0.0285,0.0308,0.0317,0.035,0.0349,0.0364,0.0378,0.0384,0.039,0.0383,0.0402,0.0401,0.0409,0.0367,0.0362,0.0357,0.0414,0.0414,0.0414,0,0,0.0184,0.0196,0.0208,0.0223,0.0242,0.0259,0.026,0.0287,0.0306,0.0326,0.0334,0.033,0.0363,0.0369,0.0378,0.037,0.0371,0.0376,0.0383,0.0342,0.0338,0.0334,0.0312,0.0307,0.038,0.038,0.038,0,0.0177,0.0202,0.0212,0.023,0.025,0.0257,0.0279,0.0297,0.0324,0.0335,0.0335,0.0349,0.036,0.0369,0.037,0.037,0.035,0.0393,0.034,0.0336,0.0332,0.0311,0.0305,0.038,0.038,0.038,0.038,0,0.019,0.0214,0.0223,0.0252,0.0271,0.0288,0.0313,0.0328,0.0344,0.0357,0.0361,0.0357,0.0366,0.0363,0.0373,0.0353,0.035,0.0339,0.0348,0.0327,0.0306,0.0299,0.038,0.038,0.038,0.038,0,0,0.0168,0.0223,0.0227,0.0256,0.0288,0.0308,0.0338,0.0367,0.0383,0.0385,0.0395,0.0399,0.0381,0.0387,0.0379,0.0347,0.0304,0.0337,0.0334,0.0321,0.0223,0.0249,0.0244,0.0279,0.0278,0.0277,0.0221,0,0.0177,0.0225,0.0249,0.0298,0.0328,0.0352,0.0383,0.0405,0.0416,0.0421,0.04,0.0401,0.0396,0.0389,0.0356,0.0312,0.0285,0.0321,0.0241,0.0239,0.0268,0.0237,0.0273,0.0216,0.0215,0.0214,0.0213,0,0.0182,0.022,0.0276,0.034,0.0353,0.0387,0.0433,0.046,0.0463,0.0463,0.0444,0.0422,0.0386,0.0372,0.0292,0.0313,0.0277,0.0238,0.0234,0.0257,0.0253,0.0239,0.0201,0.0202,0.0202,0.0203,0.0204,0,0.0174,0.0238,0.0292,0.0315,0.0381,0.0418,0.0454,0.0477,0.0492,0.0485,0.0467,0.0425,0.0397,0.0331,0.0272,0.0273,0.0173,0.0162,0.0154,0.0156,0.0151,0.0156,0.0105,0.0105,0.0105,0.0106,0.0106,0,0.0183,0.0223,0.0301,0.0333,0.0394,0.0438,0.0491,0.0508,0.0514,0.0507,0.0489,0.0447,0.0381,0.032,0.0263,0.0193,0.0168,0.0153,0.0138,0.0153,0.0158,0.0146,0.0152,0.0103,0.0104,0.0104,0.0105,0,0.0175,0.0223,0.0285,0.0367,0.0398,0.0447,0.0519,0.0533,0.0545,0.0527,0.0517,0.0457,0.0374,0.0315,0.021,0.019,0.0115,0.0103,0.0137,0.0126,0.0127,0.0133,0.0074,0.0074,0.0074,0.0075,0.0075,0,0.0178,0.0213,0.0304,0.0342,0.0391,0.047,0.0505,0.0546,0.054,0.0516,0.0477,0.042,0.0375,0.0245,0.0192,0.0106,0.0103,0.0089,0.0097,0.013,0.0121,0.0127,0.0132,0.0075,0.0075,0.0075,0.0075,0,0.0183,0.0217,0.0264,0.0334,0.0392,0.0449,0.0497,0.0484,0.05,0.0514,0.0433,0.0387,0.0307,0.0226,0.0187,0.0117,0.0105,0.0091,0.009,0.0098,0.0131,0.0123,0.0128,0.0076,0.0076,0.0076,0.0076,0,0.0173,0.0199,0.0254,0.0317,0.0377,0.0398,0.0437,0.0432,0.0437,0.0407,0.0378,0.0316,0.0297,0.023,0.0169,0.0133,0.0118,0.0118,0.0115,0.0114,0.0153,0.0202,0.0152,0,0,0,0,0,0.0165,0.0187,0.0232,0.0286,0.0338,0.0381,0.0405,0.0426,0.0435,0.0375,0.0382,0.0308,0.0242,0.0202,0.0163,0.0162,0.0107,0.0119,0.0104,0.0082,0.0081,0.0124,0,0,0,0,0,0,0.0156,0.0193,0.0216,0.025,0.0283,0.0329,0.0348,0.0354,0.032,0.0329,0.0278,0.0318,0.0232,0.026,0.0166,0.0158,0.0148,0.0102,0.0102,0.0083,0.0082,0.0081,0.0124,0,0,0,0,0]}]]